| time (UTC) | temp F | wind direction | speed knots | gust knots | rain 1hr in | rain 24hr in | rain mn in | humidity % | barometer mb |
| 20260905144517 | 55 | 95 | 0.0 | 0.0 | 0.00 | 0.00 | 0.00 | 80 | 1014.3 |
| 20260905143012 | 54 | 95 | 0.0 | 0.0 | 0.00 | 0.00 | 0.00 | 80 | 1014.4 |
| 20260905141510 | 54 | 94 | 0.0 | 0.0 | 0.00 | 0.00 | 0.00 | 80 | 1014.2 |
| 20260905140008 | 54 | 95 | 0.0 | 0.0 | 0.00 | 0.00 | 0.00 | 81 | 1014.0 |
| 20260905134506 | 55 | 113 | 0.0 | 0.0 | 0.00 | 0.01 | 0.00 | 82 | 1014.0 |
| 20260905133005 | 55 | 114 | 0.0 | 0.0 | 0.00 | 0.01 | 0.00 | 82 | 1014.0 |
| 20260905131503 | 55 | 114 | 0.0 | 0.0 | 0.00 | 0.01 | 0.00 | 81 | 1013.9 |
| 20260905130100 | 56 | 115 | 0.0 | 0.0 | 0.00 | 0.01 | 0.00 | 79 | 1013.8 |
| 20260905124558 | 56 | 114 | 0.0 | 0.0 | 0.00 | 0.01 | 0.00 | 78 | 1013.7 |
| 20260905123104 | 57 | 112 | 0.0 | 1.7 | 0.00 | 0.01 | 0.00 | 78 | 1013.7 |
| 20260905121555 | 57 | 95 | 0.0 | 1.7 | 0.00 | 0.01 | 0.00 | 77 | 1013.7 |
| 20260905120054 | 57 | 103 | 0.0 | 2.6 | 0.00 | 0.01 | 0.00 | 76 | 1013.9 |
| 20260905114553 | 57 | 107 | 0.0 | 0.0 | 0.00 | 0.01 | 0.00 | 76 | 1013.9 |
| 20260905113053 | 57 | 92 | 0.0 | 2.6 | 0.00 | 0.01 | 0.00 | 75 | 1013.8 |
| 20260905111554 | 57 | 109 | 0.0 | 0.0 | 0.00 | 0.01 | 0.00 | 75 | 1014.1 |
| 20260905110049 | 57 | 91 | 0.0 | 0.9 | 0.00 | 0.01 | 0.00 | 74 | 1014.1 |
| 20260905104603 | 57 | 84 | 0.0 | 1.7 | 0.00 | 0.01 | 0.00 | 74 | 1014.0 |
| 20260905103047 | 57 | 108 | 0.0 | 1.7 | 0.00 | 0.01 | 0.00 | 72 | 1014.1 |
| 20260905101545 | 57 | 98 | 0.0 | 0.0 | 0.00 | 0.01 | 0.00 | 72 | 1014.3 |
| 20260905100045 | 57 | 116 | 0.0 | 0.0 | 0.00 | 0.01 | 0.00 | 71 | 1014.2 |
| 20260905094542 | 58 | 97 | 0.0 | 1.7 | 0.00 | 0.01 | 0.00 | 70 | 1014.2 |
| 20260905093040 | 58 | 113 | 0.0 | 0.9 | 0.00 | 0.01 | 0.00 | 70 | 1014.2 |
| 20260905091539 | 58 | 108 | 0.0 | 1.7 | 0.00 | 0.01 | 0.00 | 70 | 1014.1 |
| 20260905090052 | 59 | 123 | 0.0 | 0.0 | 0.00 | 0.01 | 0.00 | 69 | 1014.1 |
| 20260905084535 | 59 | 117 | 0.0 | 0.0 | 0.00 | 0.01 | 0.00 | 68 | 1014.1 |
| 20260905083033 | 59 | 115 | 0.0 | 2.6 | 0.00 | 0.01 | 0.00 | 67 | 1014.2 |
| 20260905081531 | 60 | 107 | 0.0 | 2.6 | 0.00 | 0.01 | 0.00 | 67 | 1014.1 |
| 20260905080028 | 60 | 109 | 0.0 | 3.5 | 0.00 | 0.01 | 0.00 | 66 | 1014.0 |
| 20260905074526 | 60 | 130 | 0.0 | 3.5 | 0.00 | 0.01 | 0.00 | 66 | 1013.9 |
| 20260905073026 | 61 | 108 | 0.0 | 2.6 | 0.00 | 0.01 | 0.00 | 66 | 1013.9 |
| 20260905071522 | 61 | 108 | 0.0 | 0.0 | 0.00 | 0.01 | 0.00 | 67 | 1013.8 |
| 20260905070019 | 61 | 107 | 0.0 | 0.0 | 0.00 | 0.01 | 0.00 | 66 | 1013.7 |
| 20260905064522 | 62 | 89 | 0.0 | 1.7 | 0.00 | 0.01 | 0.01 | 66 | 1013.6 |
| 20260905063019 | 62 | 102 | 0.0 | 2.6 | 0.00 | 0.01 | 0.01 | 66 | 1013.6 |
| 20260905061529 | 62 | 108 | 0.0 | 0.0 | 0.00 | 0.01 | 0.01 | 67 | 1013.8 |
| 20260905060016 | 63 | 108 | 0.0 | 0.0 | 0.00 | 0.01 | 0.01 | 65 | 1013.7 |
| 20260905054522 | 63 | 114 | 0.0 | 0.9 | 0.00 | 0.01 | 0.01 | 64 | 1013.7 |
| 20260905053019 | 63 | 108 | 0.0 | 0.9 | 0.00 | 0.01 | 0.01 | 64 | 1013.8 |
| 20260905051519 | 64 | 91 | 0.0 | 0.9 | 0.00 | 0.01 | 0.01 | 63 | 1013.8 |
| 20260905050014 | 65 | 101 | 0.0 | 0.0 | 0.00 | 0.01 | 0.01 | 62 | 1013.8 |
| 20260905044517 | 66 | 88 | 0.0 | 0.0 | 0.00 | 0.01 | 0.01 | 60 | 1013.7 |
| 20260905043015 | 66 | 103 | 0.0 | 0.0 | 0.00 | 0.01 | 0.01 | 59 | 1013.5 |
| 20260905041514 | 67 | 162 | 0.0 | 0.9 | 0.00 | 0.01 | 0.01 | 57 | 1013.3 |
| 20260905040012 | 68 | 120 | 0.0 | 1.7 | 0.00 | 0.01 | 0.01 | 53 | 1013.2 |
| 20260905034511 | 68 | 136 | 0.0 | 2.6 | 0.00 | 0.01 | 0.01 | 50 | 1013.0 |
| 20260905033011 | 69 | 134 | 0.0 | 0.0 | 0.00 | 0.01 | 0.01 | 46 | 1012.8 |
| 20260905031511 | 70 | 134 | 0.0 | 0.0 | 0.00 | 0.01 | 0.01 | 44 | 1012.6 |
| 20260905030012 | 71 | 116 | 0.0 | 0.0 | 0.00 | 0.01 | 0.01 | 42 | 1012.6 |
| 20260905024509 | 72 | 131 | 0.0 | 0.9 | 0.00 | 0.01 | 0.01 | 41 | 1012.5 |
| 20260905023008 | 73 | 96 | 0.0 | 1.7 | 0.00 | 0.01 | 0.01 | 41 | 1012.4 |
| 20260905021507 | 74 | 56 | 0.0 | 0.9 | 0.00 | 0.01 | 0.01 | 42 | 1012.4 |
| 20260905020005 | 74 | 206 | 0.0 | 2.6 | 0.00 | 0.01 | 0.01 | 46 | 1012.4 |
| 20260905014505 | 75 | 98 | 0.9 | 5.2 | 0.00 | 0.01 | 0.01 | 45 | 1012.4 |
| 20260905013005 | 77 | 143 | 0.0 | 0.9 | 0.00 | 0.01 | 0.01 | 43 | 1012.3 |
| 20260905011503 | 77 | 124 | 0.0 | 3.5 | 0.00 | 0.01 | 0.01 | 44 | 1012.2 |
| 20260905010002 | 78 | 100 | 0.0 | 7.0 | 0.00 | 0.01 | 0.01 | 44 | 1012.1 |
| 20260905004502 | 78 | 144 | 0.0 | 4.3 | 0.00 | 0.01 | 0.01 | 43 | 1012.1 |
| 20260905003100 | 79 | 91 | 0.0 | 2.6 | 0.00 | 0.01 | 0.01 | 43 | 1012.2 |
| 20260905001606 | 77 | 288 | 0.9 | 4.3 | 0.00 | 0.01 | 0.01 | 45 | 1012.1 |
| 20260905000058 | 77 | 198 | 0.9 | 5.2 | 0.00 | 0.01 | 0.01 | 45 | 1012.3 |
| 20260904234600 | 78 | 144 | 0.0 | 2.6 | 0.00 | 0.01 | 0.01 | 45 | 1012.4 |
| 20260904233058 | 78 | 39 | 0.0 | 2.6 | 0.00 | 0.01 | 0.01 | 45 | 1012.4 |
| 20260904231555 | 76 | 316 | 0.9 | 4.3 | 0.00 | 0.01 | 0.01 | 46 | 1012.5 |
| 20260904230054 | 76 | 265 | 0.9 | 7.0 | 0.00 | 0.01 | 0.01 | 47 | 1012.7 |
| 20260904224554 | 77 | 161 | 1.7 | 3.5 | 0.00 | 0.01 | 0.01 | 46 | 1012.9 |
| 20260904223052 | 77 | 342 | 1.7 | 7.8 | 0.00 | 0.01 | 0.01 | 46 | 1012.8 |
| 20260904221555 | 78 | 129 | 0.0 | 5.2 | 0.00 | 0.01 | 0.01 | 45 | 1012.8 |
| 20260904220049 | 76 | 283 | 0.0 | 5.2 | 0.00 | 0.01 | 0.01 | 47 | 1012.9 |
| 20260904214557 | 77 | 110 | 0.0 | 5.2 | 0.00 | 0.01 | 0.01 | 47 | 1012.9 |
| 20260904213045 | 77 | 108 | 1.7 | 6.1 | 0.00 | 0.01 | 0.01 | 46 | 1013.0 |
| 20260904211544 | 77 | 122 | 0.0 | 4.3 | 0.00 | 0.01 | 0.01 | 48 | 1013.0 |
| 20260904210040 | 75 | 93 | 0.9 | 6.1 | 0.00 | 0.01 | 0.01 | 49 | 1013.0 |
| 20260904204538 | 75 | 148 | 0.0 | 7.0 | 0.00 | 0.01 | 0.01 | 49 | 1013.0 |
| 20260904203037 | 75 | 73 | 0.0 | 3.5 | 0.00 | 0.01 | 0.01 | 53 | 1013.0 |
| 20260904201533 | 73 | 59 | 0.9 | 5.2 | 0.00 | 0.01 | 0.01 | 54 | 1013.2 |
| 20260904200031 | 72 | 83 | 1.7 | 7.0 | 0.00 | 0.01 | 0.01 | 55 | 1013.3 |
| 20260904194533 | 71 | 227 | 0.0 | 1.7 | 0.00 | 0.01 | 0.01 | 57 | 1013.5 |
| 20260904193029 | 71 | 181 | 3.5 | 8.7 | 0.00 | 0.01 | 0.01 | 57 | 1013.6 |
| 20260904191528 | 70 | 125 | 1.7 | 7.8 | 0.00 | 0.01 | 0.01 | 57 | 1013.7 |
| 20260904190025 | 69 | 99 | 3.5 | 7.8 | 0.00 | 0.01 | 0.01 | 60 | 1013.8 |
| 20260904184526 | 68 | 95 | 0.0 | 7.0 | 0.00 | 0.01 | 0.01 | 63 | 1014.1 |
| 20260904183025 | 68 | 129 | 1.7 | 7.8 | 0.00 | 0.01 | 0.01 | 63 | 1014.1 |
| 20260904181524 | 67 | 145 | 5.2 | 9.6 | 0.00 | 0.01 | 0.01 | 65 | 1014.1 |
| 20260904180038 | 67 | 116 | 3.5 | 7.8 | 0.00 | 0.01 | 0.01 | 66 | 1014.2 |
| 20260904174516 | 66 | 92 | 0.9 | 8.7 | 0.00 | 0.01 | 0.01 | 69 | 1014.2 |
| 20260904173020 | 66 | 145 | 4.3 | 7.8 | 0.00 | 0.01 | 0.01 | 68 | 1014.1 |
| 20260904171514 | 65 | 115 | 4.3 | 7.0 | 0.00 | 0.01 | 0.01 | 71 | 1013.9 |
| 20260904170010 | 64 | 128 | 1.7 | 7.8 | 0.00 | 0.01 | 0.01 | 76 | 1013.9 |
| 20260904164508 | 63 | 127 | 3.5 | 7.8 | 0.00 | 0.01 | 0.01 | 78 | 1013.9 |
| 20260904163005 | 62 | 167 | 3.5 | 7.0 | 0.00 | 0.01 | 0.01 | 81 | 1013.7 |
| 20260904161504 | 61 | 141 | 0.9 | 6.1 | 0.00 | 0.01 | 0.01 | 84 | 1013.5 |
| 20260904160004 | 61 | 117 | 0.9 | 3.5 | 0.00 | 0.01 | 0.01 | 84 | 1013.5 |
| 20260904154601 | 61 | 110 | 1.7 | 4.3 | 0.00 | 0.01 | 0.01 | 85 | 1013.5 |
| 20260904153109 | 61 | 92 | 1.7 | 5.2 | 0.00 | 0.01 | 0.01 | 85 | 1013.4 |
| 20260904151558 | 61 | 142 | 2.6 | 6.1 | 0.00 | 0.01 | 0.01 | 86 | 1013.4 |
| 20260904150100 | 60 | 133 | 0.9 | 5.2 | 0.00 | 0.01 | 0.01 | 88 | 1013.4 |